Location: Zilina
(0.0000°N, 18.7333°E)
Time: 09:18:13
(UTC+01:00)

USA 215 - Pass Details

Date: 19 February 2019
Orbit: 1100 x 1108 km, 123.0° (Epoch: 09 March)

Event Time Altitude Azimuth Distance (km) Brightness Sun altitude
Exits shadow 20:19:30 71° 237° (WSW) 1,165 3.4 -34.4°
Drops below altitude 10° 20:25:16 10° 219° (SW) 2,967 6.0 -35.8°
Sets 20:27:45 0° 218° (SW) 3,926 6.8 -36.4°
